Погода в Каксинвае

Россия / Кировская область     56°31′54″N   51°06′59″E
темп.,
°C
ветер,
м/с
пор.,
м/с
влажн.,
%
обл.,
%
осадки,
мм/ч
давл.,
гПа
погр.,
м
4 декабря, сб
сб400:000ю3996100 0.0 1011383
03:00+1ю61498100 0.1 1008533
06:00+2ю71798100 0.4 1005614
09:00+3ю92086100 0.4 1003875
12:00+2ююз91897100 0.9 10021014
15:00+1зюз51198100 2.2 1004675
18:00−1зюз5118897 0.1 1005544
21:00−1зюз51188100 0.1 1007668
5 декабря, вс
вс500:00−2зюз5108786 0.0 1008688
03:00−3зюз5108695 0.1 1009740
06:00−3зюз5987100 0.1 1011896
09:00−3зюз5882100 0.2 10131044
12:00−4з577797 0.1 1014928
15:00−6сз4780100 0.1 1017632
18:00−8сз357491 0.0 1019521
21:00−9ссз3473100 0.0 1020512
6 декабря, пн
пн600:00−9ссз347296 0.0 1021524
03:00−10ссз347680 0.0 1023424
06:00−11с34735 0.0 1023363
09:00−12с23725 0.0 1026342
12:00−11ссз23665 0.0 1027436
15:00−11ссз23704 0.0 1028316
18:00−11ссв127537 0.0 1029215
21:00−12всв127817 0.0 1031150
7 декабря, вт
вт700:00−12вюв127942 0.0 1031108
03:00−11вюв127733 0.0 1032122
06:00−11юв237967 0.0 1032119
09:00−10юв3577100 0.0 1032166
12:00−8юв367297 0.0 1032251
15:00−7юв4977100 0.0 1031331
18:00−6юв51174100 0.0 1030400
21:00−6юв61478100 0.1 1028500
8 декабря, ср
ср800:00−5юв61582100 0.2 1025610
03:00−5юв61594100 1.6 1023595
06:00−3ююв61496100 4.3 1020586
09:000ю61695100 8.3 1018676
12:00+2ююз71795100 0.9 1018675
15:00+2ююз61695100 0.9 1018648
18:00+2ююз61396100 0.0 1019540
21:00+1ююз51296100 0.0 1020444